[[{"header":{"parameterUnit":"m.s-1","parameterCategory":1,"la1":30.2991,"la2":30.254,"lo1":-89.0895,"lo2":-89.0444,"dy":0.0017,"dx":0.0017,"nx":28,"ny":28,"refTime":"2023-10-20T03:00:00:Z","depth":0,"parameterNumber":2,"parameterNumberName":"U-component_of_WINDS"},"data":[0,0,0,0,0,0,0,0,0,0,0,0,0,0,0,0,0,0,0,0,0,0,0,0,0,0,0,0,0,0,0,0,0,0,0,0,0,0,0,0,0,0,0,0,0,0,0,0,0,0,0,0,0,0,0,0,0,0,-0.6482,-0.6482,0,-0.6416,-0.6415,-0.6414,-0.6357,-0.6357,-0.6356,-0.6356,-0.6287,-0.6286,-0.6284,0,0,0,0,0,0,0,0,0,0,0,0,0,-0.6561,-0.656,-0.6482,-0.6482,-0.6481,-0.6416,-0.6415,-0.6414,-0.6358,-0.6357,-0.6356,-0.6355,-0.6287,-0.6286,-0.6284,0,0,0,0,0,0,0,0,0,0,0,0,0,-0.6514,-0.6559,-0.6483,-0.6445,-0.6441,-0.6416,-0.6415,-0.6414,-0.6358,-0.6357,-0.6356,-0.6355,-0.6288,-0.6286,-0.6284,-0.6291,0,0,-0.6278,-0.6277,0,0,0,0,0,0,0,0,-0.6517,-0.6511,-0.6451,-0.6447,-0.6443,-0.6394,-0.6417,-0.6372,-0.6358,-0.6389,-0.6356,-0.6355,-0.6323,-0.6318,-0.6308,-0.6288,-0.6285,-0.6278,-0.6277,-0.6276,-0.6276,0,0,0,0,0,0,0,-0.652,-0.6514,-0.6456,-0.645,-0.6445,-0.6431,-0.6423,-0.6408,-0.6362,-0.6386,-0.6382,-0.6375,-0.6321,-0.631,-0.6306,-0.6284,-0.6278,-0.6276,-0.6275,-0.6275,-0.6266,-0.6267,0,0,0,0,0,0,-0.6529,-0.6517,-0.6458,-0.6454,-0.6478,-0.6431,-0.6422,-0.6411,-0.6362,-0.6354,-0.6376,-0.6373,-0.6313,-0.6308,-0.6303,-0.6308,-0.6276,-0.6274,-0.6273,-0.6265,-0.6266,-0.6267,0,0,0,0,0,0,-0.6531,-0.6524,-0.6461,-0.6484,-0.6475,-0.643,-0.6418,-0.641,-0.6399,-0.6354,-0.6346,-0.6373,-0.6312,-0.6306,-0.6294,-0.6305,-0.6274,-0.6272,-0.6264,-0.6266,-0.6267,-0.6318,0,0,0,0,0,0,-0.6533,-0.6525,-0.6528,-0.6485,-0.6474,-0.6453,-0.6418,-0.6409,-0.6396,-0.6391,-0.635,-0.6342,-0.6311,-0.6298,-0.6293,-0.6302,-0.627,-0.6263,-0.6265,-0.6266,-0.6315,-0.6321,-0.6326,0,0,0,0,0,-0.6536,-0.6545,-0.6528,-0.6521,-0.6476,-0.6454,-0.6448,-0.6413,-0.6397,-0.6398,-0.637,-0.6343,-0.6305,-0.6297,-0.6291,-0.6299,-0.6262,-0.6264,-0.6266,-0.6313,-0.632,-0.6326,0,0,0,0,0,0,-0.659,-0.6538,-0.6519,-0.6514,-0.6489,-0.6445,-0.6446,-0.6421,-0.64,-0.6397,-0.6354,-0.6345,-0.6338,-0.6318,-0.631,-0.6304,-0.628,-0.6281,-0.6317,-0.6323,-0.6329,-0.6334,-0.6269,0,0,0,0,0,-0.6601,-0.6588,-0.6543,-0.6543,-0.6531,-0.6491,-0.648,-0.6455,-0.6428,-0.6417,-0.6387,-0.6361,-0.6343,-0.6332,-0.6313,-0.6312,-0.6302,-0.6315,-0.632,-0.6325,-0.6326,-0.6324,-0.6329,-0.6274,-0.6274,-0.6274,0,0,-0.6624,-0.6594,-0.6588,-0.6553,-0.653,-0.6518,-0.6482,-0.647,-0.646,-0.6415,-0.6402,-0.638,-0.6348,-0.6342,-0.6338,-0.6325,-0.6339,-0.6328,-0.6332,-0.633,-0.6326,-0.6332,-0.6336,-0.6275,-0.6275,-0.6275,0,0,-0.6659,-0.6635,-0.6632,-0.661,-0.6577,-0.655,-0.655,-0.6509,-0.6493,-0.6479,-0.6445,-0.6433,-0.6403,-0.6381,-0.6367,-0.6394,-0.6368,-0.6389,-0.6417,-0.6415,-0.6419,-0.6423,-0.6433,-0.6437,-0.6391,-0.6391,-0.6391,0,-0.6691,-0.667,-0.6633,-0.6623,-0.6609,-0.6567,-0.6563,-0.6544,-0.6507,-0.6498,-0.6484,-0.6445,-0.6421,-0.6409,-0.6416,-0.6405,-0.6403,-0.6393,-0.6422,-0.6425,-0.6428,-0.6437,-0.644,-0.6393,-0.6393,-0.6393,-0.6393,0,-0.6712,-0.6698,-0.67,-0.6664,-0.665,-0.6643,-0.6605,-0.6595,-0.6572,-0.6546,-0.6534,-0.6503,-0.6477,-0.6473,-0.645,-0.6458,-0.6451,-0.643,-0.6405,-0.6437,-0.6444,-0.6447,-0.6397,-0.6396,-0.6396,-0.6395,0,0,-0.6778,-0.6723,-0.6724,-0.6707,-0.6668,-0.6656,-0.6648,-0.6623,-0.6615,-0.6591,-0.6582,-0.6558,-0.6539,-0.6522,-0.6497,-0.6495,-0.6519,-0.6474,-0.6473,-0.6483,-0.6526,-0.6541,-0.6546,-0.6502,-0.6502,-0.6503,-0.6528,0,-0.6806,-0.6789,-0.6755,-0.6748,-0.6735,-0.6696,-0.6688,-0.6663,-0.664,-0.6625,-0.6599,-0.6582,-0.6558,-0.6548,-0.6545,-0.6517,-0.6527,-0.6514,-0.6493,-0.6493,-0.6502,-0.655,-0.6566,-0.6591,-0.6531,-0.6531,-0.6532,0,-0.6837,-0.6815,-0.6807,-0.6768,-0.6761,-0.6756,-0.673,-0.6716,-0.6687,-0.667,-0.6652,-0.6624,-0.6613,-0.6591,-0.6575,-0.6567,-0.6557,-0.6542,-0.6542,-0.6538,-0.6514,-0.6547,-0.6599,-0.6603,-0.6536,-0.6536,-0.6535,0,-0.6886,-0.6854,-0.6845,-0.6832,-0.6787,-0.6784,-0.6765,-0.6735,-0.6722,-0.67,-0.6691,-0.6668,-0.6655,-0.6638,-0.6604,-0.6591,-0.6592,-0.6567,-0.6577,-0.6578,-0.6578,-0.6579,-0.6629,-0.6573,-0.6573,-0.6573,-0.6572,0,-0.6921,-0.6917,-0.6867,-0.6861,-0.6856,-0.6817,-0.6814,-0.6791,-0.6765,-0.6754,-0.6719,-0.671,-0.6666,-0.6651,-0.6625,-0.6616,-0.661,-0.6596,-0.6589,-0.6599,-0.6601,-0.6591,-0.6589,-0.6573,-0.6573,-0.6573,-0.6573,0,-0.6974,-0.694,-0.6928,-0.6886,-0.6876,-0.6874,-0.6838,-0.6831,-0.6806,-0.6793,-0.6787,-0.6747,-0.6729,-0.6693,-0.6665,-0.6647,-0.6644,-0.6632,-0.6654,-0.6649,-0.6661,-0.6661,-0.6707,-0.6711,-0.6653,-0.6653,-0.6654,0,-0.6999,-0.6995,-0.6953,-0.6943,-0.6926,-0.6911,-0.6898,-0.686,-0.6847,-0.6814,-0.6811,-0.679,-0.6771,-0.6743,-0.6711,-0.6689,-0.6676,-0.6694,-0.6672,-0.6683,-0.6676,-0.6677,-0.6676,-0.6699,-0.6699,-0.67,-0.6701,0,-0.7046,-0.7029,-0.7011,-0.6988,-0.6973,-0.6952,-0.693,-0.6924,-0.6881,-0.6869,-0.685,-0.6835,-0.6806,-0.6785,-0.6759,-0.6739,-0.6713,-0.6708,-0.6709,-0.6719,-0.6732,-0.6725,-0.6666,-0.6707,-0.6706,-0.6706,-0.6705,-0.6705,-0.7085,-0.708,-0.705,-0.7031,-0.701,-0.699,-0.6982,-0.6955,-0.6939,-0.6912,-0.6891,-0.6873,-0.6844,-0.6806,-0.6788,-0.6773,-0.6761,-0.6763,-0.6763,-0.6764,-0.6768,-0.6735,-0.6769,-0.6768,-0.6768,-0.6768,-0.6768,0,-0.713,-0.7109,-0.7092,-0.7062,-0.7047,-0.7024,-0.6998,-0.6988,-0.6973,-0.6948,-0.693,-0.6908,-0.6887,-0.6854,-0.6831,-0.6826,-0.6814,-0.6821,-0.6821,-0.6817,-0.6781,-0.6782,-0.6832,-0.6832,-0.6832,-0.6832,-0.6832,-0.6832,-0.7152,-0.7142,-0.7122,-0.7101,-0.708,-0.7062,-0.705,-0.7031,-0.7011,-0.6988,-0.6971,-0.695,-0.6921,-0.6896,-0.6877,-0.6867,-0.686,-0.6872,-0.6859,-0.6826,-0.682,-0.6814,-0.6815,-0.6871,-0.6871,-0.6897,-0.6897,-0.6897]},{"header":{"parameterUnit":"m.s-1","parameterCategory":1,"la1":30.2991,"la2":30.254,"lo1":-89.0895,"lo2":-89.0444,"dy":0.0017,"dx":0.0017,"nx":28,"ny":28,"refTime":"2023-10-20T03:00:00:Z","depth":0,"parameterNumber":3,"parameterNumberName":"V-component_of_WINDS"},"data":[0,0,0,0,0,0,0,0,0,0,0,0,0,0,0,0,0,0,0,0,0,0,0,0,0,0,0,0,0,0,0,0,0,0,0,0,0,0,0,0,0,0,0,0,0,0,0,0,0,0,0,0,0,0,0,0,0,0,1.933,1.933,0,1.9344,1.9344,1.9344,1.9342,1.9342,1.9342,1.9341,1.9354,1.9354,1.9355,0,0,0,0,0,0,0,0,0,0,0,0,0,1.93,1.9301,1.933,1.933,1.9331,1.9344,1.9344,1.9345,1.9342,1.9342,1.9342,1.9341,1.9354,1.9354,1.9355,0,0,0,0,0,0,0,0,0,0,0,0,0,1.9314,1.9301,1.933,1.9331,1.9331,1.9344,1.9344,1.9345,1.9342,1.9342,1.9342,1.9341,1.9354,1.9354,1.9355,1.9367,0,0,1.9358,1.9358,0,0,0,0,0,0,0,0,1.9313,1.9315,1.9331,1.9331,1.9331,1.9341,1.9338,1.9352,1.9342,1.9338,1.9341,1.9341,1.935,1.9351,1.9354,1.9368,1.9368,1.9358,1.9358,1.9359,1.9359,0,0,0,0,0,0,0,1.9312,1.9314,1.9336,1.9331,1.9331,1.933,1.9332,1.9341,1.9346,1.9338,1.9338,1.934,1.935,1.9353,1.9355,1.9369,1.9358,1.9358,1.9359,1.9359,1.9394,1.9394,0,0,0,0,0,0,1.9311,1.9313,1.9335,1.9336,1.9321,1.9331,1.9333,1.9338,1.9346,1.9346,1.934,1.934,1.9352,1.9354,1.9355,1.937,1.9359,1.9359,1.936,1.9394,1.9394,1.9395,0,0,0,0,0,0,1.931,1.9313,1.9335,1.9325,1.9327,1.9332,1.9338,1.9339,1.9342,1.9347,1.9348,1.9343,1.9352,1.9354,1.9365,1.9371,1.936,1.936,1.9393,1.9394,1.9394,1.9401,0,0,0,0,0,0,1.931,1.9313,1.9318,1.9325,1.9328,1.9344,1.9339,1.9339,1.9344,1.9344,1.935,1.9351,1.9352,1.9363,1.9365,1.9372,1.9361,1.9393,1.9393,1.9394,1.94,1.9402,1.9403,0,0,0,0,0,1.9309,1.9318,1.9318,1.932,1.9334,1.9345,1.9346,1.9348,1.9344,1.9349,1.9353,1.935,1.937,1.9365,1.9367,1.9373,1.9392,1.9393,1.9394,1.9399,1.9401,1.9403,0,0,0,0,0,0,1.931,1.9319,1.9319,1.9331,1.9337,1.9344,1.935,1.935,1.9357,1.9356,1.9357,1.9359,1.937,1.9373,1.9367,1.9386,1.938,1.9382,1.9384,1.9385,1.9387,1.9386,1.9362,0,0,0,0,0,1.9312,1.9321,1.9328,1.9338,1.9341,1.9345,1.935,1.9351,1.9357,1.9359,1.9363,1.9369,1.9376,1.9381,1.9388,1.9401,1.9402,1.9406,1.9408,1.9409,1.941,1.9418,1.942,1.9398,1.9398,1.9398,0,0,1.9316,1.9322,1.9327,1.9338,1.9343,1.9352,1.9347,1.9356,1.9362,1.936,1.9371,1.9374,1.9381,1.9393,1.9398,1.9396,1.9417,1.941,1.9411,1.9411,1.9419,1.9421,1.9423,1.9398,1.9398,1.9398,0,0,1.9327,1.9333,1.9342,1.9348,1.9356,1.9359,1.9361,1.9368,1.9371,1.9382,1.9381,1.9388,1.9401,1.9406,1.941,1.9425,1.9423,1.9427,1.9434,1.9442,1.9443,1.9445,1.945,1.9452,1.9428,1.9428,1.9428,0,1.9331,1.9344,1.9347,1.9356,1.9362,1.9362,1.9371,1.9376,1.9386,1.9389,1.9386,1.9403,1.9407,1.9421,1.9425,1.9428,1.9431,1.9426,1.9443,1.9444,1.9446,1.9451,1.9453,1.9429,1.9429,1.9429,1.9428,0,1.9348,1.9357,1.9364,1.9375,1.9381,1.939,1.9394,1.94,1.9401,1.9404,1.9416,1.9421,1.943,1.9433,1.9434,1.9447,1.9445,1.9443,1.9437,1.9448,1.9454,1.9456,1.9429,1.9429,1.9429,1.9429,0,0,1.936,1.9373,1.9376,1.9381,1.939,1.9397,1.9407,1.9417,1.9422,1.9428,1.9437,1.9448,1.9446,1.9451,1.9452,1.9458,1.9471,1.9455,1.9455,1.9458,1.9486,1.9488,1.9491,1.947,1.947,1.9471,1.9486,0,1.9372,1.939,1.9394,1.9409,1.9418,1.9419,1.9428,1.9434,1.9438,1.9446,1.9449,1.9458,1.9454,1.9457,1.9464,1.9468,1.9476,1.9467,1.9477,1.9478,1.9476,1.9493,1.9495,1.9509,1.9488,1.9488,1.9489,0,1.9389,1.9398,1.9414,1.9424,1.9428,1.9436,1.9445,1.9453,1.946,1.9463,1.9469,1.9469,1.948,1.9474,1.9488,1.9481,1.9486,1.9489,1.9489,1.949,1.9484,1.9495,1.9514,1.9516,1.9492,1.9491,1.9491,0,1.9396,1.9412,1.9424,1.9429,1.944,1.9446,1.9451,1.9458,1.9464,1.9472,1.9476,1.9485,1.949,1.9496,1.95,1.9495,1.9514,1.9508,1.9516,1.9516,1.9519,1.9519,1.9539,1.9522,1.9522,1.9522,1.9522,0,1.9409,1.942,1.9428,1.9436,1.9447,1.9452,1.9463,1.9468,1.9475,1.9483,1.9484,1.9492,1.9495,1.9504,1.9506,1.9518,1.952,1.9522,1.9522,1.9522,1.9521,1.9524,1.9524,1.9523,1.9522,1.9522,1.9522,0,1.9419,1.9425,1.9439,1.9449,1.9452,1.946,1.9469,1.9476,1.9481,1.9491,1.9494,1.95,1.951,1.9514,1.9526,1.9528,1.9541,1.9541,1.9539,1.9539,1.9546,1.9546,1.9569,1.9573,1.9553,1.9554,1.9554,0,1.9427,1.9436,1.9447,1.9454,1.9459,1.9469,1.9475,1.948,1.9487,1.9497,1.9503,1.9514,1.9522,1.9538,1.9543,1.9552,1.9552,1.956,1.9553,1.9553,1.9553,1.9552,1.9553,1.9561,1.9561,1.9561,1.9561,0,1.9441,1.9444,1.9454,1.9465,1.9473,1.9482,1.949,1.9495,1.9501,1.9509,1.9519,1.9526,1.9539,1.9549,1.9559,1.9563,1.9563,1.9564,1.9566,1.9565,1.9564,1.9565,1.9542,1.9563,1.9563,1.9563,1.9562,1.9562,1.9451,1.9458,1.9469,1.948,1.9487,1.9495,1.9503,1.9509,1.9518,1.953,1.9532,1.9544,1.9552,1.9565,1.9571,1.9579,1.9577,1.9581,1.9581,1.9582,1.9583,1.9563,1.9581,1.9581,1.9581,1.9581,1.9581,0,1.9465,1.9472,1.9482,1.9495,1.9504,1.9504,1.9514,1.9521,1.9532,1.954,1.9549,1.9562,1.9572,1.9579,1.9589,1.9595,1.9595,1.9597,1.9597,1.9598,1.9584,1.9581,1.9597,1.9597,1.9597,1.9597,1.9597,1.9597,1.9473,1.9487,1.9491,1.9509,1.9515,1.9528,1.9533,1.9541,1.9548,1.9563,1.9572,1.9576,1.9584,1.9595,1.9605,1.9606,1.961,1.9612,1.9614,1.9601,1.9599,1.9597,1.9595,1.9613,1.9613,1.9627,1.9628,1.9628]}]]